Location: Newark
(48.8656°N, 2.3211°E)
Time: 07:44:39
(UTC+00:00)

Envisat - Pass Details

Date: 10 December 2019
Orbit: 764 x 766 km, 98.1° (Epoch: 28 January)

Event Time Altitude Azimuth Distance (km) Brightness Sun altitude
Rises 06:18:03 0° 18° (NNE) 3,247 6.2 -11.6°
Reaches altitude 10° 06:20:27 10° 24° (NNE) 2,315 5.5 -11.2°
Maximum altitude 06:25:23 48° 99° (E) 1,001 4.1 -10.5°
Drops below altitude 10° 06:30:16 10° 173° (S) 2,297 5.9 -9.8°
Sets 06:32:38 0° 179° (S) 3,218 6.6 -9.4°
